Date,TemperatureHighF,TemperatureAvgF,TemperatureLowF,DewpointHighF,DewpointAvgF,DewpointLowF,HumidityHigh,HumidityAvg,HumidityLow,PressureMaxIn,PressureMinIn,WindSpeedMaxMPH,WindSpeedAvgMPH,GustSpeedMaxMPH,PrecipitationSumIn
2013-2-1,61.6,40.1,22.1,25.2,20.1,15.2,83,50,17,30.30,30.17,14,2,15,0.00
2013-2-2,62.6,43.0,27.5,24.8,21.0,17.7,76,45,19,30.38,30.28,12,1,13,0.00
2013-2-3,54.6,42.1,27.8,30.2,22.4,18.9,74,48,25,30.31,30.03,13,1,13,0.00
2013-2-4,65.0,46.8,34.9,30.8,25.4,17.4,75,46,18,30.15,30.04,15,2,17,0.00
2013-2-5,66.0,45.6,31.8,25.3,19.4,14.7,68,39,15,30.14,30.02,11,1,11,0.00
2013-2-6,66.2,44.4,26.2,29.1,21.6,15.5,70,43,23,30.05,29.91,13,2,15,0.00
2013-2-7,62.0,45.1,32.5,28.0,20.2,9.7,70,41,16,30.18,30.05,9,1,10,0.00
2013-2-8,59.9,45.4,33.8,25.5,21.3,16.9,56,40,25,30.14,29.82,24,2,24,0.00
2013-2-9,50.2,36.6,27.2,24.6,15.7,5.0,61,44,21,29.89,29.72,33,6,39,0.00
2013-2-10,46.2,34.7,23.3,23.2,15.1,9.9,72,47,24,30.00,29.89,15,2,15,0.00
2013-2-11,49.9,33.7,19.3,23.9,17.4,3.2,85,57,16,30.05,29.93,19,2,19,0.00
2013-2-12,47.6,33.9,24.7,22.0,13.3,6.7,69,46,19,30.18,29.98,20,5,22,0.00
2013-2-13,54.6,35.5,18.4,17.7,12.8,7.7,65,42,21,30.18,30.07,21,3,21,0.00
2013-2-14,57.7,40.1,23.7,21.4,17.4,13.4,67,42,20,30.23,30.08,23,4,25,0.00
2013-2-15,57.4,40.2,23.6,23.2,13.6,1.1,78,40,11,30.36,30.22,26,4,28,0.00
2013-2-16,64.3,41.7,22.7,13.9,6.7,-5.6,53,28,7,30.41,30.16,12,1,12,0.00
2013-2-17,63.2,43.0,20.7,9.4,4.0,-2.0,46,23,8,30.17,29.78,19,2,19,0.00
2013-2-18,59.1,44.1,33.6,18.2,-3.2,-30.5,49,18,2,30.11,29.87,18,4,20,0.00
2013-2-19,62.9,42.5,21.0,35.7,7.0,-10.8,69,27,9,30.12,29.80,22,4,23,0.00
2013-2-20,53.7,44.0,33.8,36.0,29.4,16.9,76,59,25,29.82,29.61,22,4,22,0.00
2013-2-21,52.9,39.0,30.4,28.5,22.8,17.6,89,56,26,29.94,29.64,16,3,21,0.00
2013-2-22,46.9,35.3,25.7,23.8,19.4,11.0,71,54,27,30.08,29.92,28,2,28,0.00
2013-2-23,55.6,36.0,18.4,19.5,12.2,8.0,65,41,17,30.10,29.77,14,1,15,0.00
2013-2-24,46.2,36.4,30.5,24.3,14.7,3.7,76,43,21,29.93,29.73,30,8,31,0.00
2013-2-25,54.8,38.7,26.4,18.2,9.0,-1.5,59,33,12,30.09,29.93,23,6,23,0.00
2013-2-26,52.4,35.3,20.0,16.6,4.7,-11.0,65,32,10,30.10,29.88,29,5,32,0.00
2013-2-27,51.4,35.4,19.7,10.6,4.3,-3.0,56,29,12,30.28,30.10,13,1,15,0.00
2013-2-28,60.0,39.9,24.1,10.7,2.8,-8.5,39,23,6,30.32,30.21,19,3,19,0.00